Content
SEND FEEDBACK

Daily
Averages
Monthly
Summary
United States of America

CONCORD CROSSROADS, SOUTH CAROLINA


Home > North America > United States > South Carolina
Elevation: 45 meters     Latitude: 32 58N     Longitude: 081 31W

WEATHER
 
SELECT A DAY
Number of Records: 133,799;   Date Range: 12/7/08 - 9/21/14
 
SHARE

PRINT THIS DATA

[ ← Previous Day ]
WEATHER ALMANAC - 13 FEBRUARY, 2013
[ Next Day → ]
[ °F ]   °C
Weather ElementAverageHighLow
Temperature11.9 °C17 °C (1:15 pm)9 °C (10:35 pm)
Dewpoint10.1 °C14 °C (11:55 am)6 °C (9:55 pm)
Humidity89.4 %100 % (5:35 am)59 % (2:15 pm)
Barometer1009.5 hPa1013.2 hPa (11:55 pm)1007.5 hPa (12:55 pm)
Wind Speed10 km/h25.9 km/h (1:55 pm)
Wind Gust42.6 km/h (2:15 pm)
Weather ElementAverage
Visibility11.3 km
Wind DirectionSSE (145 °)

Weather ElementTotal
Precipitation7.62 mm
Heating Degree Days5.3 (Base 18.3)
Growing Degree Days3 (Base 10)
Averaged from 70 records on 13 February, 2013
WEATHER CONDITIONS BREAKOUT
WIND DIRECTION BREAKOUT
WEATHER BY HOUR - 13 FEBRUARY, 2013
[ °F ]   °C
Local TimeTemperatureDewpointHumidityBarometerVisibilityWind DirectionWind SpeedGust SpeedPrecipitationEventsConditions
12:35 AM11 °C10 °C94 %1012.2 hPa14.5 kmNNE (20°)13 km/hRainRain
12:55 AM11 °C10 °C94 %1011.5 hPa11.3 kmNE (50°)13 km/h0.25 mmLight Drizzle
1:15 AM11 °C10 °C94 %1011.5 hPa12.9 kmNE (50°)9.3 km/hRain-ThunderstormLight Rain
1:35 AM11 °C10 °C94 %1010.8 hPa12.9 kmEast (80°)9.3 km/hLight Drizzle
1:55 AM11 °C10 °C94 %1011.2 hPa9.7 kmNE (50°)9.3 km/hThunderstormOvercast
2:15 AM11 °C10 °C94 %1009.8 hPa6.4 kmEast (90°)7.4 km/hThunderstormOvercast
2:35 AM11 °C10 °C94 %1009.1 hPa4.8 kmEast (80°)13 km/h3.56 mmRain-ThunderstormThunderstorms and Rain
2:55 AM11 °C10 °C94 %1009.5 hPa16.1 kmENE (60°)7.4 km/h3.81 mmLight Drizzle
3:15 AM11 °C10 °C94 %1009.1 hPa16.1 kmENE (70°)9.3 km/hOvercast
3:35 AM11 °C10 °C94 %1009.5 hPa16.1 kmENE (60°)5.6 km/hOvercast
3:55 AM11 °C10 °C94 %1008.8 hPa16.1 kmENE (70°)14.8 km/hOvercast
4:15 AM11 °C10 °C94 %1008.5 hPa11.3 kmNE (40°)5.6 km/hOvercast
4:35 AM11 °C10 °C94 %1008.8 hPa11.3 kmNNE (30°)11.1 km/hOvercast
4:55 AM11 °C10 °C94 %1008.8 hPa9.7 kmNE (50°)5.6 km/hOvercast
5:15 AM11 °C10 °C94 %1009.5 hPa4 kmCalmOvercast
5:35 AM10 °C10 °C100 %1008.5 hPa3.2 kmEast (80°)13 km/hOvercast
5:55 AM10 °C10 °C100 %1008.5 hPa4.8 kmENE (60°)7.4 km/hOvercast
6:15 AM10 °C10 °C100 %1008.5 hPa6.4 kmNE (40°)5.6 km/hOvercast
6:35 AM10 °C10 °C100 %1008.8 hPa4.8 kmCalmOvercast
6:55 AM10 °C10 °C100 %1008.1 hPa4.8 kmCalmOvercast
7:15 AM10 °C10 °C100 %1009.1 hPa2.4 kmCalmOvercast
7:35 AM11 °C10 °C94 %1008.8 hPa0.8 kmCalmFogFog
7:55 AM11 °C10 °C94 %1009.5 hPa0.3 kmCalmFogFog
8:15 AM11 °C10 °C94 %1008.8 hPa0.3 kmCalmFogFog
8:35 AM11 °C11 °C100 %1010.2 hPa0.3 kmCalmFogFog
8:55 AM11 °C11 °C100 %1009.5 hPa0.3 kmCalmFogFog
9:15 AM11 °C11 °C100 %1009.5 hPa0.8 kmCalmFogFog
9:35 AM11 °C11 °C100 %1008.5 hPa0.8 kmCalmFogFog
9:55 AM11 °C11 °C100 %1009.1 hPa1.6 kmCalmOvercast
10:15 AM11 °C11 °C100 %1009.5 hPa1.6 kmCalmOvercast
10:35 AM12 °C12 °C100 %1008.8 hPa1.3 kmCalmOvercast
10:55 AM12 °C12 °C100 %1009.1 hPa1.9 kmSSW (200°)7.4 km/hOvercast
11:15 AM12 °C12 °C100 %1008.1 hPa4.8 kmSouth (190°)13 km/hOvercast
11:35 AM13 °C13 °C100 %1008.1 hPa11.3 kmSSW (210°)9.3 km/hOvercast
11:55 AM14 °C14 °C100 %1008.8 hPa16.1 kmSW (230°)14.8 km/hOvercast
12:15 PM14 °C14 °C100 %1007.8 hPa16.1 kmSW (220°)14.8 km/hOvercast
12:35 PM16 °C14 °C88 %1007.8 hPa16.1 kmSW (220°)14.8 km/hMostly Cloudy
12:55 PM16 °C13 °C82 %1007.5 hPa16.1 kmSW (230°)16.7 km/hPartly Cloudy
1:15 PM17 °C12 °C72 %1007.5 hPa16.1 kmWSW (240°)20.4 km/h35.2 km/hPartly Cloudy
1:55 PM17 °C11 °C68 %1007.5 hPa16.1 kmWSW (250°)25.9 km/h38.9 km/hPartly Cloudy
2:15 PM17 °C9 °C59 %1007.8 hPa16.1 kmWSW (250°)24.1 km/h42.6 km/hClear
2:35 PM16 °C10 °C68 %1008.1 hPa16.1 kmWSW (250°)18.5 km/h37 km/hPartly Cloudy
2:55 PM16 °C10 °C68 %1007.5 hPa16.1 kmWest (270°)18.5 km/h33.3 km/hClear
3:15 PM16 °C10 °C68 %1007.5 hPa16.1 kmWest (270°)16.7 km/h27.8 km/hClear
3:35 PM16 °C10 °C68 %1007.8 hPa16.1 kmWest (280°)18.5 km/hClear
3:55 PM15 °C10 °C72 %1008.1 hPa16.1 kmWest (280°)14.8 km/hClear
4:15 PM14 °C10 °C77 %1008.5 hPa16.1 kmWest (260°)13 km/hClear
4:35 PM14 °C11 °C82 %1008.5 hPa16.1 kmWSW (250°)11.1 km/hMostly Cloudy
4:55 PM14 °C11 °C82 %1008.5 hPa16.1 kmCalmMostly Cloudy
5:15 PM13 °C11 °C88 %1009.5 hPa11.3 kmWSW (250°)7.4 km/hLight Drizzle
5:35 PM12 °C11 °C94 %1008.5 hPa9.7 kmWest (260°)11.1 km/hRainLight Rain
5:55 PM12 °C11 °C94 %1009.5 hPa14.5 kmWest (260°)16.7 km/h27.8 km/hLight Drizzle
6:15 PM12 °C11 °C94 %1009.1 hPa12.9 kmWest (260°)14.8 km/h25.9 km/hRainLight Rain
6:35 PM12 °C11 °C94 %1009.5 hPa16.1 kmWSW (240°)14.8 km/h29.6 km/hMostly Cloudy
6:55 PM11 °C10 °C94 %1009.5 hPa12.9 kmWSW (250°)20.4 km/h27.8 km/hMostly Cloudy
7:15 PM11 °C10 °C94 %1010.2 hPa16.1 kmWSW (240°)18.5 km/h27.8 km/hClear
7:35 PM11 °C9 °C88 %1010.2 hPa16.1 kmSW (230°)16.7 km/hClear
7:55 PM11 °C9 °C88 %1010.5 hPa16.1 kmWSW (240°)14.8 km/hClear
8:15 PM11 °C9 °C88 %1010.8 hPa16.1 kmSW (230°)14.8 km/h29.6 km/hClear
8:35 PM11 °C9 °C88 %1010.8 hPa16.1 kmWSW (240°)14.8 km/hPartly Cloudy
8:55 PM11 °C9 °C88 %1011.2 hPa16.1 kmWSW (250°)13 km/hMostly Cloudy
9:15 PM11 °C9 °C88 %1011.5 hPa16.1 kmWest (260°)13 km/h25.9 km/hMostly Cloudy
9:35 PM11 °C7 °C76 %1011.9 hPa16.1 kmWest (270°)13 km/h25.9 km/hScattered Clouds
9:55 PM11 °C6 °C71 %1011.9 hPa16.1 kmWest (280°)13 km/hClear
10:15 PM10 °C6 °C76 %1012.2 hPa16.1 kmWest (270°)11.1 km/hClear
10:35 PM9 °C6 °C82 %1012.9 hPa16.1 kmWest (260°)13 km/hClear
10:55 PM9 °C6 °C82 %1012.9 hPa16.1 kmWSW (250°)5.6 km/hClear
11:15 PM9 °C6 °C82 %1012.9 hPa16.1 kmWest (270°)7.4 km/hClear
11:35 PM9 °C6 °C82 %1012.9 hPa16.1 kmWest (260°)9.3 km/hClear
11:55 PM9 °C6 °C82 %1013.2 hPa16.1 kmCalmClear
Hourly data recorded from KBNL, located 0 kilometers away from Concord Crossroads, South Carolina







STORIES FROM OUR PARTNERS